Regional Weather Roundup
Issued by NWS Sterling, VA

Home | Current Version | Previous Version | Graphics & Text | Print | Product List | Glossary On
Versions: 1 2 3 4 5 6 7 8 9 10 11 12 13 14 15 16 17 18 19 20 21 22 23 24 25 26 27 28 29 30 31 32 33 34 35 36 37 38 39 40 41 42 43 44 45 46 47 48 49 50
239
ASUS41 KLWX 181410
RWRLWX

REGIONAL WEATHER ROUNDUP
NATIONAL WEATHER SERVICE BALTIMORE MD/WASHINGTON DC
900 AM EST SAT FEB 18 2017

Note: "FAIR" indicates few or no clouds below 12,000 feet
with no significant weather and/or obstructions to visibility.
 TC=TEMPERATURE CELSIUS

 * =Non NWS site. Station does not report precipitation (e.g. rain,
    snow, etc.), thunder, or fog.

DCZ001-MDZ009-015-VAZ040>042-051-053>054-181500-
WASHINGTON METRO

CITY           SKY/WX    TMP DP  RH WIND       PRES   REMARKS
WASHINGTON NAT MOSUNNY   40  31  70 S6        29.91F
DULLES         MOSUNNY   41  26  55 CALM      29.89F
ANDREWS AFB    SUNNY     44  31  58 SW3       29.89F
FT BELVOIR     CLOUDY    40  28  62 CALM      29.91F
QUANTICO       CLOUDY    38  31  76 CALM      29.92F
COLLEGE PARK*  SUNNY     41  30  65 CALM      29.89F
LEESBURG*      SUNNY     43  32  65 MISG      29.90S
MANASSAS*      SUNNY     37  28  70 S3        29.91F
GAITHERSBURG*  SUNNY     39  27  60 CALM      29.93F

$$

MDZ006>007-011-014-181500-
BALTIMORE METRO

CITY           SKY/WX    TMP DP  RH WIND       PRES   REMARKS
BWI AIRPORT    MOSUNNY   43  30  60 W6        29.89F
MD SCIENCE CTR   N/A     44  26  49 MISG      29.89F
MARTIN STATE   SUNNY     39  32  75 SW6       29.92R
ANNAPOLIS      SUNNY     44  31  60 CALM      29.90F
FORT MEADE*    SUNNY     41  30  65 S5        29.92F

$$

MDZ012-015-019>023-181500-
MARYLAND EASTERN SHORE

CITY           SKY/WX    TMP DP  RH WIND       PRES   REMARKS
OCEAN CITY     SUNNY     50  37  61 W8        29.92R
SALISBURY      SUNNY     47  38  71 SW6       29.92R
BAY BRIDGE AP* SUNNY     41  32  70 SW6       29.90F
CAMBRIDGE*     SUNNY     41  36  81 S3        29.91F

$$

MDZ017>025-181500-
SOUTHERN MARYLAND

CITY           SKY/WX    TMP DP  RH WIND       PRES   REMARKS
PATUXENT RIVER PTSUNNY   45  36  70 W5        29.91F
ST INIGOES     CLOUDY    44  37  76 W3        29.91F
LEONARDTOWN*   CLOUDY    43  34  70 W3        29.91F

$$

MDZ003>005-181500-
NORTH CENTRAL MARYLAND

CITY           SKY/WX    TMP DP  RH WIND       PRES   REMARKS
FREDERICK*     SUNNY     37  30  75 CALM      29.92F
HAGERSTOWN APT SUNNY     43  27  53 S7        29.86F
WESTMINSTER*   SUNNY     45  28  53 SW3       29.86F

$$

MDZ501>502-181500-
WESTERN MARYLAND

CITY           SKY/WX    TMP DP  RH WIND       PRES   REMARKS
OAKLAND*       CLOUDY    46  28  49 W12G22    29.88R
CUMBERLAND*    MOSUNNY   36  30  80 CALM      29.90F

$$

VAZ025>031-181500-
SHENANDOAH VALLEY

CITY           SKY/WX    TMP DP  RH WIND       PRES   REMARKS
WINCHESTER*    CLOUDY    45  30  57 CALM      29.86F
FRONT ROYAL*   SUNNY     46  32  57 S5        29.87S
LURAY*         CLOUDY    41  34  75 CALM      29.89S
NEW MARKET*    CLOUDY    37  30  75 SW5       29.88F
STAUNTON*      CLOUDY    43  33  68 CALM      29.93R
WAYNESBORO*    CLOUDY    56  27  32 SW8       29.91S

$$

WVZ021-048>050-054>055-181500-
EASTERN WEST VIRGINIA PANHANDLE

CITY           SKY/WX    TMP DP  RH WIND       PRES   REMARKS
MARTINSBURG    CLOUDY    41  27  57 CALM      29.87F
PETERSBURG*    MOSUNNY   48  39  69 CALM      29.87S

$$

VAZ036>039-050-181500-
CENTRAL FOOTHILLS

CITY           SKY/WX    TMP DP  RH WIND       PRES   REMARKS
CHARLOTTESVILL CLOUDY    40  29  64 W5        29.90S
CULPEPER*      CLOUDY    39  30  70 CALM      29.91F
ORANGE*        CLOUDY    37  28  70 CALM      29.91F
GORDONSVILLE*  CLOUDY    41  28  61 CALM      29.90S
WARRENTON*     CLOUDY    41  25  54 CALM      29.89F

$$

VAZ055>057-181500-
NORTH AND CENTRAL PIEDMONT

CITY           SKY/WX    TMP DP  RH WIND       PRES   REMARKS
FREDERICKSBRG* CLOUDY    39  33  77 CALM      29.90F
STAFFORD*      CLOUDY    39  31  75 CALM      29.94F

$$

NCZ024-NYZ072-PAZ021-071-VAZ022-071-181500-
OTHER REGIONAL OBSERVATIONS

CITY           SKY/WX    TMP DP  RH WIND       PRES   REMARKS
NEW YORK CITY  SUNNY     42  19  39 SW9G16    29.87S
PHILADELPHIA   MOSUNNY   39  28  64 W8        29.90R
PITTSBURGH     PTSUNNY   51  33  50 SW10      29.83R
ROANOKE        PTSUNNY   55  28  35 W9        29.96S
RICHMOND       CLOUDY    47  34  60 CALM      29.92S
RALEIGH        PTSUNNY   50  37  61 SW5       29.95F

$$

ANZ530>537-181500-
MARINE OBSERVATIONS

STATION/POSITION TIME  TEMP    WIND        PRES
                       AIR SEA DIR/SP/G
                 (UTC) (F)     (DEG/KT/KT) (MB)
THOMAS PT LIGHT  1400   38 39  190/  5/  5   N/A
BALT KEY BRIDGE  1348   37     250/  3/  4 1012.5F
COVE POINT       1348   45      CALM  /  3 1013.4F
LEWISETTA        1348   42 40  340/  2/  3 1012.8F
SOLOMONS ISLAND  1348          300/  5/  6   N/A
PINEY POINT      1348          340/  4/  4   N/A

$$





USA.gov is the U.S. government's official web portal to all federal, state and local government web resources and services.